QPF
0.03 0.02 0.07 0.14 0.17 0.18 0.15 0.08 0.02 0.00 0.00 0.00 0.00 0.00 0.00 0.01 0.05 0.09 0.10 0.04 0.01 0.01 0.01 0.01 0.01 0.01 0.02 0.03 0.03 0.03 0.03 0.03 0.04 0.05 0.05 0.05 0.04 0.05 0.05 0.05 0.05 0.04 0.03 0.04 0.05 0.03 0.03 0.03 0.02
0.03 0.05 0.11 0.16 0.18 0.17 0.14 0.07 0.04 0.01 0.00 0.00 0.00 0.00 0.00 0.00 0.01 0.02 0.05 0.03 0.00 0.00 0.01 0.01 0.01 0.02 0.02 0.02 0.02 0.02 0.03 0.03 0.03 0.04 0.05 0.05 0.04 0.04 0.04 0.05 0.06 0.07 0.07 0.07 0.07 0.06 0.05 0.06 0.03
0.03 0.07 0.13 0.18 0.16 0.13 0.10 0.03 0.01 0.00 0.00 0.00 0.00 0.00 0.00 0.01 0.01 0.02 0.03 0.01 0.00 0.00 0.00 0.00 0.01 0.01 0.01 0.02 0.02 0.02 0.02 0.02 0.03 0.03 0.05 0.05 0.04 0.04 0.03 0.03 0.04 0.06 0.07 0.08 0.09 0.08 0.07 0.07 0.06
0.09 0.14 0.12 0.15 0.12 0.08 0.05 0.03 0.00 0.00 0.00 0.00 0.00 0.00 0.00 0.00 0.00 0.01 0.01 0.00 0.00 0.00 0.00 0.00 0.01 0.01 0.01 0.01 0.01 0.02 0.01 0.01 0.01 0.02 0.03 0.04 0.05 0.05 0.04 0.04 0.04 0.05 0.06 0.08 0.09 0.08 0.06 0.06 0.08
0.13 0.17 0.17 0.14 0.08 0.04 0.02 0.03 0.01 0.01 0.00 0.00 0.00 0.01 0.02 0.01 0.00 0.00 0.00 0.00 0.00 0.00 0.00 0.00 0.00 0.00 0.01 0.01 0.01 0.02 0.01 0.01 0.01 0.02 0.03 0.03 0.04 0.05 0.05 0.05 0.04 0.04 0.05 0.07 0.08 0.08 0.07 0.07 0.07
0.18 0.16 0.15 0.12 0.07 0.04 0.04 0.02 0.01 0.01 0.01 0.00 0.00 0.01 0.02 0.01 0.00 0.00 0.00 0.00 0.00 0.00 0.00 0.00 0.00 0.00 0.00 0.00 0.01 0.01 0.01 0.00 0.00 0.01 0.01 0.01 0.03 0.03 0.04 0.04 0.03 0.03 0.03 0.05 0.06 0.07 0.07 0.06 0.06
0.18 0.15 0.10 0.08 0.07 0.05 0.05 0.03 0.02 0.01 0.01 0.01 0.00 0.00 0.01 0.01 0.01 0.00 0.00 0.00 0.00 0.00 0.00 0.00 0.00 0.00 0.00 0.00 0.00 0.00 0.00 0.00 0.00 0.00 0.00 0.00 0.02 0.04 0.04 0.03 0.02 0.02 0.02 0.04 0.04 0.06 0.07 0.06 0.06
0.11 0.13 0.07 0.07 0.07 0.05 0.03 0.03 0.02 0.01 0.01 0.01 0.00 0.00 0.01 0.01 0.00 0.00 0.00 0.00 0.00 0.00 0.00 0.00 0.00 0.00 0.00 0.00 0.00 0.00 0.00 0.00 0.00 0.00 0.00 0.00 0.00 0.02 0.04 0.04 0.02 0.00 0.01 0.02 0.03 0.04 0.07 0.08 0.07
0.07 0.12 0.08 0.06 0.04 0.02 0.02 0.02 0.01 0.00 0.01 0.00 0.00 0.00 0.01 0.00 0.00 0.00 0.01 0.01 0.01 0.00 0.00 0.00 0.00 0.00 0.00 0.00 0.00 0.00 0.00 0.00 0.00 0.00 0.00 0.00 0.00 0.01 0.03 0.04 0.04 0.02 0.02 0.02 0.02 0.03 0.04 0.06 0.07
0.09 0.10 0.06 0.03 0.01 0.01 0.01 0.02 0.02 0.01 0.01 0.01 0.01 0.01 0.01 0.00 0.00 0.01 0.01 0.01 0.01 0.00 0.00 0.00 0.00 0.00 0.00 0.00 0.00 0.00 0.00 0.00 0.00 0.00 0.00 0.00 0.00 0.01 0.02 0.02 0.02 0.02 0.02 0.01 0.02 0.02 0.03 0.05 0.06
0.04 0.04 0.02 0.02 0.01 0.02 0.02 0.02 0.01 0.01 0.02 0.01 0.01 0.01 0.00 0.00 0.00 0.01 0.00 0.00 0.00 0.00 0.00 0.00 0.00 0.00 0.00 0.00 0.00 0.00 0.00 0.00 0.00 0.00 0.00 0.00 0.00 0.00 0.01 0.01 0.01 0.02 0.02 0.02 0.02 0.03 0.04 0.06 0.07
0.02 0.02 0.01 0.01 0.01 0.01 0.03 0.01 0.00 0.01 0.02 0.01 0.00 0.00 0.00 0.00 0.01 0.00 0.00 0.00 0.00 0.00 0.00 0.00 0.00 0.00 0.00 0.00 0.00 0.00 0.00 0.00 0.00 0.00 0.00 0.00 0.00 0.01 0.01 0.02 0.01 0.01 0.02 0.02 0.01 0.02 0.03 0.06 0.10
0.03 0.03 0.02 0.01 0.01 0.00 0.02 0.01 0.00 0.01 0.01 0.01 0.01 0.00 0.00 0.00 0.01 0.01 0.01 0.01 0.00 0.00 0.00 0.00 0.00 0.00 0.00 0.00 0.00 0.00 0.00 0.00 0.00 0.00 0.00 0.00 0.00 0.00 0.01 0.01 0.02 0.02 0.02 0.02 0.02 0.01 0.01 0.02 0.05
0.02 0.03 0.05 0.01 0.00 0.00 0.01 0.00 0.00 0.00 0.00 0.01 0.00 0.00 0.00 0.00 0.01 0.02 0.01 0.03 0.02 0.01 0.00 0.00 0.00 0.00 0.00 0.00 0.00 0.00 0.00 0.00 0.00 0.00 0.00 0.00 0.00 0.00 0.01 0.01 0.02 0.02 0.01 0.02 0.02 0.01 0.01 0.02 0.03
0.03 0.03 0.04 0.03 0.01 0.01 0.01 0.03 0.03 0.01 0.01 0.01 0.01 0.00 0.00 0.00 0.00 0.02 0.01 0.01 0.01 0.00 0.00 0.00 0.00 0.00 0.00 0.01 0.00 0.00 0.00 0.00 0.00 0.00 0.00 0.00 0.00 0.00 0.01 0.01 0.02 0.02 0.02 0.02 0.02 0.02 0.02 0.02 0.03
0.04 0.04 0.06 0.06 0.06 0.03 0.02 0.03 0.03 0.02 0.01 0.00 0.00 0.00 0.00 0.00 0.00 0.00 0.00 0.00 0.00 0.00 0.00 0.00 0.00 0.00 0.01 0.01 0.01 0.00 0.00 0.00 0.00 0.00 0.00 0.00 0.00 0.00 0.01 0.02 0.01 0.01 0.02 0.02 0.02 0.03 0.03 0.03 0.03
0.06 0.05 0.05 0.05 0.05 0.03 0.01 0.01 0.02 0.02 0.01 0.00 0.00 0.00 0.00 0.00 0.00 0.00 0.00 0.00 0.01 0.00 0.00 0.00 0.00 0.00 0.00 0.00 0.00 0.00 0.00 0.01 0.00 0.00 0.00 0.00 0.00 0.00 0.01 0.03 0.02 0.02 0.02 0.02 0.02 0.03 0.04 0.05 0.04
0.07 0.05 0.05 0.07 0.08 0.07 0.04 0.01 0.01 0.01 0.01 0.00 0.00 0.00 0.00 0.00 0.00 0.00 0.00 0.00 0.00 0.00 0.00 0.00 0.00 0.00 0.00 0.01 0.01 0.01 0.01 0.01 0.01 0.01 0.00 0.01 0.01 0.01 0.01 0.03 0.03 0.03 0.03 0.04 0.04 0.05 0.05 0.05 0.05
0.08 0.06 0.03 0.06 0.11 0.10 0.06 0.02 0.02 0.03 0.02 0.00 0.00 0.00 0.00 0.00 0.00 0.00 0.00 0.00 0.00 0.00 0.00 0.00 0.00 0.00 0.01 0.01 0.01 0.01 0.01 0.01 0.01 0.00 0.00 0.00 0.01 0.01 0.02 0.02 0.04 0.04 0.04 0.05 0.06 0.07 0.06 0.05 0.04
0.04 0.03 0.06 0.07 0.06 0.05 0.04 0.02 0.02 0.02 0.02 0.01 0.00 0.00 0.00 0.00 0.00 0.00 0.00 0.00 0.00 0.00 0.00 0.00 0.00 0.00 0.01 0.01 0.01 0.01 0.02 0.01 0.01 0.01 0.00 0.00 0.02 0.02 0.02 0.02 0.04 0.06 0.06 0.06 0.06 0.07 0.07 0.07 0.06
0.04 0.02 0.06 0.06 0.03 0.01 0.01 0.01 0.01 0.01 0.02 0.01 0.01 0.00 0.00 0.00 0.00 0.00 0.00 0.00 0.00 0.00 0.00 0.00 0.00 0.00 0.01 0.00 0.01 0.01 0.01 0.01 0.01 0.01 0.00 0.00 0.01 0.02 0.03 0.03 0.03 0.04 0.05 0.07 0.07 0.07 0.08 0.07 0.08
0.03 0.02 0.02 0.02 0.02 0.03 0.01 0.01 0.01 0.01 0.01 0.01 0.00 0.00 0.00 0.00 0.00 0.00 0.00 0.00 0.00 0.00 0.00 0.00 0.00 0.01 0.01 0.01 0.01 0.01 0.01 0.01 0.01 0.01 0.01 0.01 0.01 0.02 0.03 0.03 0.03 0.03 0.04 0.05 0.06 0.06 0.07 0.07 0.08
0.05 0.03 0.02 0.02 0.02 0.02 0.01 0.01 0.01 0.01 0.01 0.00 0.00 0.00 0.00 0.00 0.00 0.00 0.00 0.00 0.00 0.00 0.00 0.00 0.00 0.01 0.01 0.01 0.01 0.00 0.00 0.01 0.01 0.01 0.01 0.01 0.01 0.02 0.02 0.03 0.04 0.03 0.04 0.03 0.02 0.04 0.04 0.06 0.07
0.05 0.03 0.02 0.02 0.03 0.04 0.01 0.00 0.01 0.01 0.01 0.01 0.00 0.00 0.00 0.00 0.00 0.00 0.00 0.00 0.00 0.00 0.00 0.00 0.00 0.01 0.01 0.00 0.00 0.00 0.00 0.01 0.01 0.01 0.01 0.01 0.01 0.02 0.02 0.02 0.04 0.03 0.04 0.03 0.03 0.03 0.04 0.04 0.05
0.03 0.04 0.05 0.05 0.05 0.03 0.01 0.00 0.01 0.01 0.01 0.00 0.00 0.00 0.00 0.00 0.00 0.00 0.00 0.00 0.00 0.00 0.00 0.00 0.00 0.00 0.00 0.00 0.00 0.00 0.00 0.00 0.01 0.00 0.01 0.01 0.01 0.02 0.02 0.03 0.03 0.03 0.04 0.03 0.02 0.02 0.03 0.03 0.04
0.01 0.04 0.08 0.10 0.09 0.04 0.01 0.00 0.00 0.00 0.00 0.00 0.00 0.00 0.00 0.00 0.00 0.00 0.00 0.00 0.00 0.00 0.00 0.00 0.00 0.00 0.00 0.00 0.01 0.00 0.00 0.00 0.01 0.00 0.01 0.01 0.01 0.01 0.02 0.03 0.03 0.04 0.04 0.04 0.03 0.02 0.03 0.03 0.03
0.01 0.01 0.02 0.04 0.05 0.04 0.02 0.00 0.00 0.00 0.00 0.00 0.00 0.00 0.00 0.00 0.00 0.00 0.00 0.00 0.00 0.00 0.00 0.00 0.00 0.00 0.00 0.00 0.00 0.00 0.00 0.00 0.00 0.00 0.01 0.01 0.01 0.01 0.02 0.03 0.03 0.04 0.03 0.04 0.04 0.04 0.03 0.03 0.03
0.00 0.01 0.01 0.01 0.03 0.03 0.02 0.00 0.00 0.00 0.00 0.00 0.00 0.00 0.00 0.00 0.00 0.00 0.00 0.00 0.00 0.00 0.00 0.00 0.00 0.00 0.00 0.00 0.00 0.00 0.00 0.00 0.00 0.01 0.01 0.01 0.00 0.01 0.02 0.03 0.03 0.03 0.03 0.03 0.04 0.05 0.05 0.05 0.04
0.00 0.00 0.01 0.00 0.01 0.02 0.03 0.01 0.00 0.00 0.00 0.00 0.00 0.00 0.00 0.00 0.00 0.00 0.00 0.00 0.00 0.00 0.00 0.00 0.00 0.00 0.00 0.00 0.00 0.00 0.00 0.00 0.00 0.01 0.01 0.01 0.01 0.01 0.01 0.03 0.03 0.03 0.03 0.03 0.03 0.03 0.04 0.04 0.05
0.00 0.00 0.00 0.01 0.01 0.01 0.01 0.01 0.00 0.00 0.00 0.00 0.00 0.00 0.00 0.00 0.00 0.00 0.00 0.00 0.00 0.00 0.00 0.00 0.00 0.00 0.00 0.00 0.00 0.00 0.00 0.00 0.00 0.00 0.00 0.01 0.01 0.01 0.02 0.04 0.04 0.04 0.03 0.04 0.03 0.03 0.03 0.04 0.05
MSLP
1008.07 1008.85 1009.75 1010.65 1011.43 1011.97 1012.21 1012.15 1011.83 1011.35 1010.86 1010.47 1010.28 1010.32 1010.59 1011.00 1011.45 1011.84 1012.08 1012.13 1012.01 1011.76 1011.46 1011.20 1011.05 1011.01 1011.09 1011.24 1011.41 1011.53 1011.59 1011.58 1011.52 1011.45 1011.40 1011.41 1011.47 1011.58 1011.70 1011.80 1011.84 1011.83 1011.77 1011.67 1011.59 1011.53 1011.51 1011.54 1011.60
1008.32 1009.22 1010.17 1011.03 1011.68 1012.04 1012.08 1011.83 1011.37 1010.83 1010.33 1010.00 1009.90 1010.05 1010.40 1010.86 1011.33 1011.69 1011.89 1011.90 1011.75 1011.50 1011.24 1011.04 1010.96 1011.01 1011.17 1011.38 1011.59 1011.75 1011.83 1011.83 1011.77 1011.70 1011.64 1011.63 1011.66 1011.72 1011.78 1011.82 1011.82 1011.77 1011.69 1011.61 1011.53 1011.49 1011.49 1011.52 1011.56
1008.71 1009.69 1010.64 1011.42 1011.92 1012.09 1011.94 1011.53 1010.95 1010.36 1009.89 1009.62 1009.60 1009.83 1010.23 1010.71 1011.16 1011.47 1011.62 1011.58 1011.42 1011.19 1010.99 1010.87 1010.89 1011.04 1011.28 1011.55 1011.80 1011.98 1012.07 1012.08 1012.02 1011.95 1011.88 1011.84 1011.83 1011.85 1011.85 1011.84 1011.79 1011.71 1011.62 1011.53 1011.47 1011.45 1011.46 1011.49 1011.52
1009.21 1010.22 1011.11 1011.77 1012.10 1012.09 1011.78 1011.24 1010.60 1010.01 1009.58 1009.39 1009.45 1009.74 1010.16 1010.62 1011.01 1011.26 1011.33 1011.26 1011.09 1010.90 1010.77 1010.75 1010.87 1011.11 1011.42 1011.74 1012.01 1012.20 1012.29 1012.28 1012.22 1012.13 1012.06 1012.00 1011.96 1011.93 1011.90 1011.84 1011.75 1011.65 1011.55 1011.48 1011.44 1011.43 1011.45 1011.48 1011.49
1009.73 1010.70 1011.50 1012.01 1012.17 1012.01 1011.57 1010.96 1010.32 1009.77 1009.43 1009.33 1009.47 1009.80 1010.22 1010.63 1010.94 1011.10 1011.11 1010.99 1010.82 1010.68 1010.62 1010.70 1010.91 1011.23 1011.58 1011.92 1012.19 1012.35 1012.41 1012.38 1012.31 1012.21 1012.13 1012.06 1012.01 1011.96 1011.89 1011.81 1011.70 1011.60 1011.50 1011.44 1011.42 1011.43 1011.46 1011.49 1011.48
1010.19 1011.07 1011.72 1012.06 1012.07 1011.78 1011.27 1010.66 1010.07 1009.63 1009.40 1009.42 1009.64 1010.00 1010.40 1010.75 1010.97 1011.04 1010.97 1010.81 1010.65 1010.55 1010.57 1010.72 1011.01 1011.37 1011.73 1012.06 1012.29 1012.40 1012.41 1012.35 1012.25 1012.15 1012.06 1012.00 1011.95 1011.90 1011.84 1011.74 1011.64 1011.53 1011.45 1011.41 1011.41 1011.44 1011.48 1011.50 1011.48
1010.50 1011.23 1011.70 1011.87 1011.75 1011.37 1010.85 1010.30 1009.82 1009.53 1009.46 1009.60 1009.91 1010.29 1010.66 1010.94 1011.07 1011.04 1010.90 1010.72 1010.56 1010.50 1010.57 1010.79 1011.11 1011.49 1011.84 1012.11 1012.28 1012.32 1012.28 1012.17 1012.05 1011.94 1011.87 1011.83 1011.81 1011.77 1011.72 1011.63 1011.53 1011.44 1011.37 1011.35 1011.36 1011.41 1011.46 1011.48 1011.45
1010.61 1011.16 1011.44 1011.45 1011.22 1010.81 1010.33 1009.87 1009.55 1009.43 1009.52 1009.80 1010.18 1010.59 1010.93 1011.14 1011.18 1011.08 1010.89 1010.68 1010.53 1010.50 1010.61 1010.86 1011.20 1011.56 1011.87 1012.07 1012.16 1012.14 1012.03 1011.89 1011.75 1011.66 1011.61 1011.60 1011.61 1011.60 1011.56 1011.49 1011.40 1011.31 1011.25 1011.24 1011.27 1011.33 1011.39 1011.41 1011.38
1010.51 1010.87 1010.99 1010.87 1010.56 1010.15 1009.73 1009.41 1009.25 1009.30 1009.55 1009.94 1010.39 1010.81 1011.12 1011.27 1011.25 1011.09 1010.86 1010.64 1010.51 1010.51 1010.65 1010.92 1011.25 1011.57 1011.82 1011.95 1011.97 1011.88 1011.72 1011.56 1011.43 1011.35 1011.34 1011.37 1011.41 1011.43 1011.41 1011.34 1011.25 1011.16 1011.10 1011.09 1011.12 1011.19 1011.25 1011.28 1011.25
1010.25 1010.46 1010.43 1010.22 1009.87 1009.48 1009.15 1008.95 1008.94 1009.14 1009.50 1009.98 1010.47 1010.89 1011.17 1011.28 1011.21 1011.02 1010.78 1010.58 1010.47 1010.49 1010.66 1010.93 1011.24 1011.52 1011.71 1011.79 1011.74 1011.61 1011.43 1011.26 1011.15 1011.11 1011.13 1011.20 1011.27 1011.30 1011.29 1011.22 1011.12 1011.02 1010.94 1010.92 1010.94 1011.00 1011.06 1011.10 1011.07
1009.93 1010.02 1009.91 1009.64 1009.28 1008.93 1008.68 1008.58 1008.68 1008.97 1009.40 1009.90 1010.40 1010.79 1011.04 1011.11 1011.03 1010.84 1010.62 1010.44 1010.37 1010.44 1010.62 1010.89 1011.18 1011.43 1011.58 1011.62 1011.54 1011.39 1011.22 1011.07 1010.99 1010.98 1011.05 1011.14 1011.22 1011.27 1011.25 1011.16 1011.04 1010.91 1010.81 1010.77 1010.77 1010.81 1010.87 1010.90 1010.88
1009.67 1009.70 1009.54 1009.25 1008.91 1008.60 1008.40 1008.36 1008.50 1008.82 1009.25 1009.73 1010.17 1010.52 1010.73 1010.78 1010.69 1010.53 1010.35 1010.24 1010.22 1010.33 1010.54 1010.81 1011.10 1011.33 1011.46 1011.49 1011.41 1011.28 1011.13 1011.02 1010.97 1011.01 1011.09 1011.21 1011.30 1011.34 1011.30 1011.20 1011.05 1010.89 1010.76 1010.68 1010.66 1010.68 1010.72 1010.74 1010.71
1009.56 1009.57 1009.41 1009.14 1008.82 1008.55 1008.37 1008.34 1008.46 1008.73 1009.08 1009.47 1009.83 1010.10 1010.26 1010.30 1010.23 1010.12 1010.01 1009.97 1010.02 1010.17 1010.42 1010.71 1011.00 1011.24 1011.38 1011.42 1011.38 1011.28 1011.18 1011.12 1011.11 1011.17 1011.27 1011.39 1011.48 1011.50 1011.45 1011.33 1011.16 1010.98 1010.82 1010.71 1010.65 1010.64 1010.65 1010.64 1010.60
1009.67 1009.70 1009.57 1009.32 1009.04 1008.78 1008.59 1008.51 1008.55 1008.70 1008.92 1009.17 1009.41 1009.59 1009.70 1009.73 1009.70 1009.65 1009.62 1009.66 1009.78 1010.00 1010.28 1010.60 1010.92 1011.17 1011.35 1011.43 1011.44 1011.40 1011.36 1011.33 1011.36 1011.43 1011.53 1011.64 1011.71 1011.73 1011.67 1011.54 1011.36 1011.17 1011.00 1010.86 1010.77 1010.73 1010.70 1010.65 1010.57
1009.97 1010.04 1009.94 1009.74 1009.48 1009.21 1008.98 1008.82 1008.73 1008.73 1008.78 1008.87 1008.97 1009.05 1009.11 1009.14 1009.16 1009.18 1009.24 1009.36 1009.55 1009.82 1010.14 1010.49 1010.83 1011.13 1011.36 1011.50 1011.57 1011.60 1011.60 1011.61 1011.65 1011.72 1011.80 1011.89 1011.94 1011.95 1011.89 1011.78 1011.62 1011.44 1011.27 1011.13 1011.01 1010.93 1010.85 1010.77 1010.65
1010.40 1010.50 1010.44 1010.27 1010.02 1009.74 1009.45 1009.18 1008.96 1008.78 1008.66 1008.58 1008.55 1008.55 1008.57 1008.61 1008.67 1008.77 1008.91 1009.10 1009.35 1009.66 1010.02 1010.39 1010.77 1011.10 1011.38 1011.60 1011.74 1011.82 1011.87 1011.90 1011.93 1011.98 1012.03 1012.08 1012.12 1012.12 1012.08 1012.00 1011.88 1011.75 1011.60 1011.46 1011.33 1011.21 1011.09 1010.96 1010.79
1010.84 1010.96 1010.93 1010.78 1010.54 1010.24 1009.89 1009.53 1009.16 1008.83 1008.54 1008.33 1008.18 1008.12 1008.12 1008.19 1008.31 1008.47 1008.68 1008.93 1009.22 1009.55 1009.92 1010.31 1010.71 1011.08 1011.42 1011.69 1011.90 1012.04 1012.12 1012.15 1012.17 1012.17 1012.18 1012.19 1012.20 1012.21 1012.20 1012.17 1012.12 1012.04 1011.93 1011.81 1011.68 1011.53 1011.37 1011.19 1010.98
1011.18 1011.29 1011.29 1011.17 1010.94 1010.62 1010.23 1009.78 1009.31 1008.85 1008.44 1008.11 1007.89 1007.79 1007.81 1007.91 1008.09 1008.31 1008.57 1008.86 1009.17 1009.50 1009.86 1010.25 1010.65 1011.06 1011.44 1011.77 1012.03 1012.21 1012.31 1012.34 1012.33 1012.29 1012.24 1012.21 1012.20 1012.21 1012.24 1012.27 1012.29 1012.27 1012.22 1012.12 1011.99 1011.83 1011.63 1011.42 1011.19
1011.33 1011.44 1011.45 1011.36 1011.16 1010.85 1010.44 1009.93 1009.38 1008.84 1008.34 1007.95 1007.70 1007.60 1007.63 1007.79 1008.03 1008.31 1008.61 1008.91 1009.21 1009.52 1009.86 1010.22 1010.62 1011.03 1011.44 1011.81 1012.12 1012.34 1012.45 1012.48 1012.43 1012.34 1012.24 1012.17 1012.14 1012.16 1012.22 1012.30 1012.38 1012.43 1012.42 1012.36 1012.23 1012.05 1011.84 1011.60 1011.37
1011.25 1011.38 1011.42 1011.38 1011.22 1010.94 1010.53 1010.01 1009.42 1008.82 1008.29 1007.86 1007.60 1007.52 1007.60 1007.81 1008.10 1008.43 1008.76 1009.06 1009.34 1009.61 1009.90 1010.22 1010.59 1011.00 1011.42 1011.83 1012.17 1012.41 1012.55 1012.57 1012.49 1012.36 1012.22 1012.11 1012.06 1012.08 1012.16 1012.28 1012.41 1012.50 1012.53 1012.49 1012.37 1012.18 1011.96 1011.72 1011.50
1011.00 1011.15 1011.26 1011.28 1011.20 1010.97 1010.59 1010.07 1009.47 1008.85 1008.29 1007.85 1007.60 1007.54 1007.66 1007.93 1008.28 1008.65 1008.99 1009.29 1009.54 1009.76 1009.99 1010.26 1010.58 1010.97 1011.39 1011.81 1012.18 1012.45 1012.60 1012.63 1012.54 1012.39 1012.22 1012.08 1012.00 1012.01 1012.10 1012.24 1012.39 1012.50 1012.56 1012.52 1012.41 1012.22 1011.99 1011.77 1011.57
1010.66 1010.87 1011.06 1011.18 1011.19 1011.03 1010.69 1010.20 1009.59 1008.95 1008.37 1007.92 1007.67 1007.63 1007.79 1008.10 1008.49 1008.89 1009.25 1009.54 1009.76 1009.93 1010.10 1010.31 1010.58 1010.93 1011.34 1011.76 1012.14 1012.44 1012.62 1012.66 1012.59 1012.43 1012.25 1012.09 1011.99 1011.99 1012.06 1012.20 1012.35 1012.46 1012.52 1012.48 1012.36 1012.17 1011.95 1011.75 1011.60
1010.34 1010.64 1010.94 1011.17 1011.27 1011.19 1010.90 1010.43 1009.81 1009.15 1008.53 1008.06 1007.79 1007.75 1007.92 1008.25 1008.68 1009.11 1009.48 1009.77 1009.96 1010.10 1010.21 1010.36 1010.57 1010.88 1011.25 1011.67 1012.06 1012.38 1012.59 1012.67 1012.62 1012.48 1012.30 1012.14 1012.04 1012.01 1012.06 1012.17 1012.30 1012.40 1012.43 1012.38 1012.25 1012.07 1011.86 1011.68 1011.57
1010.14 1010.54 1010.95 1011.30 1011.50 1011.49 1011.24 1010.77 1010.13 1009.42 1008.75 1008.22 1007.91 1007.84 1008.00 1008.33 1008.77 1009.22 1009.62 1009.91 1010.10 1010.21 1010.28 1010.37 1010.54 1010.79 1011.13 1011.52 1011.92 1012.25 1012.50 1012.62 1012.61 1012.51 1012.36 1012.21 1012.10 1012.06 1012.08 1012.16 1012.25 1012.32 1012.33 1012.26 1012.13 1011.94 1011.75 1011.59 1011.51
1010.09 1010.59 1011.11 1011.56 1011.85 1011.89 1011.67 1011.18 1010.51 1009.73 1008.98 1008.37 1007.99 1007.86 1007.98 1008.30 1008.74 1009.21 1009.62 1009.93 1010.13 1010.23 1010.28 1010.34 1010.46 1010.67 1010.96 1011.33 1011.71 1012.06 1012.33 1012.50 1012.54 1012.49 1012.39 1012.26 1012.16 1012.11 1012.11 1012.15 1012.21 1012.24 1012.22 1012.14 1012.00 1011.82 1011.64 1011.50 1011.44
1010.18 1010.77 1011.37 1011.90 1012.24 1012.31 1012.09 1011.58 1010.85 1010.01 1009.17 1008.47 1007.99 1007.78 1007.85 1008.13 1008.56 1009.04 1009.48 1009.82 1010.04 1010.16 1010.21 1010.25 1010.33 1010.50 1010.76 1011.09 1011.45 1011.81 1012.10 1012.31 1012.41 1012.42 1012.36 1012.27 1012.19 1012.13 1012.12 1012.13 1012.16 1012.16 1012.12 1012.03 1011.90 1011.73 1011.56 1011.44 1011.38
1010.37 1011.00 1011.64 1012.20 1012.56 1012.64 1012.41 1011.87 1011.09 1010.17 1009.25 1008.46 1007.90 1007.61 1007.61 1007.85 1008.25 1008.73 1009.19 1009.57 1009.83 1009.98 1010.05 1010.10 1010.17 1010.31 1010.53 1010.83 1011.17 1011.53 1011.84 1012.08 1012.23 1012.29 1012.29 1012.24 1012.18 1012.13 1012.11 1012.10 1012.10 1012.09 1012.05 1011.96 1011.83 1011.68 1011.53 1011.41 1011.35
1010.57 1011.18 1011.82 1012.36 1012.71 1012.77 1012.52 1011.95 1011.13 1010.17 1009.20 1008.34 1007.70 1007.34 1007.27 1007.46 1007.84 1008.31 1008.79 1009.20 1009.51 1009.71 1009.82 1009.89 1009.97 1010.10 1010.31 1010.58 1010.91 1011.26 1011.58 1011.85 1012.04 1012.15 1012.19 1012.18 1012.15 1012.11 1012.08 1012.07 1012.06 1012.04 1012.00 1011.92 1011.81 1011.69 1011.56 1011.44 1011.37
1010.71 1011.26 1011.83 1012.31 1012.61 1012.64 1012.36 1011.78 1010.95 1009.98 1008.99 1008.10 1007.42 1007.01 1006.88 1007.02 1007.37 1007.82 1008.31 1008.75 1009.10 1009.36 1009.53 1009.65 1009.76 1009.91 1010.12 1010.39 1010.71 1011.05 1011.37 1011.66 1011.88 1012.02 1012.10 1012.12 1012.11 1012.09 1012.06 1012.05 1012.03 1012.01 1011.98 1011.93 1011.85 1011.75 1011.63 1011.53 1011.45
1010.75 1011.20 1011.67 1012.05 1012.27 1012.25 1011.94 1011.37 1010.57 1009.62 1008.66 1007.79 1007.10 1006.66 1006.50 1006.59 1006.89 1007.32 1007.79 1008.25 1008.65 1008.96 1009.19 1009.38 1009.55 1009.74 1009.97 1010.25 1010.58 1010.92 1011.25 1011.55 1011.79 1011.95 1012.05 1012.09 1012.10 1012.08 1012.06 1012.04 1012.02 1012.01 1011.99 1011.96 1011.91 1011.84 1011.75 1011.66 1011.57
Thickness
5802 5802 5799 5786 5765 5754 5755 5769 5781 5784 5789 5799 5802 5797 5786 5776 5765 5752 5776 5789 5787 5782 5776 5770 5768 5766 5764 5762 5761 5760 5758 5757 5756 5756 5755 5754 5754 5754 5754 5754 5754 5755 5755 5756 5756 5757 5759 5760 5761
5805 5804 5792 5776 5756 5748 5755 5774 5778 5785 5795 5802 5802 5797 5787 5779 5783 5777 5780 5786 5786 5781 5774 5769 5765 5763 5761 5759 5758 5757 5755 5754 5753 5752 5752 5751 5751 5751 5751 5751 5751 5751 5752 5753 5753 5755 5756 5757 5758
5805 5802 5782 5767 5759 5755 5761 5778 5784 5795 5802 5799 5795 5795 5785 5777 5783 5780 5784 5787 5785 5779 5773 5767 5763 5761 5758 5756 5755 5753 5752 5751 5750 5749 5748 5748 5748 5747 5747 5748 5748 5748 5749 5749 5751 5752 5753 5754 5755
5801 5789 5780 5766 5762 5774 5780 5785 5792 5792 5796 5799 5794 5784 5784 5789 5786 5785 5788 5787 5782 5777 5771 5765 5762 5759 5756 5754 5752 5751 5749 5748 5747 5746 5745 5744 5744 5744 5744 5744 5744 5744 5745 5746 5747 5749 5750 5751 5753
5796 5778 5764 5762 5770 5784 5792 5794 5795 5788 5789 5793 5790 5776 5773 5786 5790 5788 5787 5785 5780 5775 5771 5765 5761 5758 5755 5752 5750 5748 5747 5745 5744 5743 5742 5741 5741 5740 5740 5740 5740 5740 5741 5742 5744 5745 5747 5748 5749
5779 5774 5757 5756 5768 5782 5791 5797 5794 5789 5789 5792 5788 5777 5772 5786 5785 5785 5785 5783 5781 5776 5772 5765 5761 5757 5754 5751 5748 5746 5744 5742 5741 5740 5739 5738 5738 5737 5737 5736 5736 5737 5737 5738 5740 5741 5743 5744 5746
5771 5764 5758 5763 5764 5772 5784 5796 5790 5786 5785 5788 5791 5776 5773 5781 5785 5787 5785 5783 5780 5776 5772 5767 5762 5758 5754 5751 5748 5745 5743 5741 5739 5738 5737 5736 5735 5735 5734 5733 5733 5733 5733 5734 5735 5737 5739 5741 5742
5781 5766 5761 5763 5762 5768 5785 5792 5793 5788 5785 5797 5796 5777 5769 5780 5787 5787 5784 5781 5778 5775 5772 5769 5765 5760 5755 5751 5747 5745 5742 5740 5738 5737 5735 5734 5734 5733 5732 5731 5729 5729 5729 5730 5731 5733 5735 5737 5738
5783 5758 5751 5758 5764 5772 5786 5785 5791 5798 5792 5793 5795 5789 5785 5788 5788 5782 5777 5776 5773 5773 5772 5769 5766 5761 5756 5752 5748 5745 5742 5739 5737 5736 5734 5733 5732 5732 5731 5728 5727 5726 5726 5727 5727 5729 5731 5733 5735
5771 5751 5759 5774 5781 5779 5784 5783 5787 5787 5782 5782 5786 5789 5790 5787 5782 5776 5772 5770 5768 5768 5769 5768 5764 5760 5756 5753 5748 5745 5742 5739 5737 5736 5733 5731 5730 5729 5728 5725 5724 5723 5723 5723 5724 5725 5727 5729 5732
5771 5763 5774 5781 5788 5788 5784 5785 5790 5781 5773 5780 5781 5783 5784 5782 5778 5775 5773 5772 5770 5769 5767 5766 5763 5760 5756 5751 5748 5744 5742 5739 5736 5734 5731 5729 5726 5725 5723 5722 5720 5720 5719 5719 5721 5722 5723 5726 5729
5771 5775 5783 5785 5791 5788 5784 5785 5785 5782 5781 5793 5794 5791 5785 5780 5777 5775 5774 5773 5771 5768 5765 5764 5762 5759 5755 5751 5747 5744 5740 5737 5734 5731 5728 5725 5722 5720 5719 5717 5717 5716 5716 5716 5717 5718 5720 5722 5725
5769 5774 5782 5789 5790 5789 5787 5784 5784 5785 5793 5797 5796 5790 5785 5782 5781 5780 5779 5776 5772 5767 5764 5762 5760 5756 5753 5749 5745 5742 5738 5734 5731 5727 5724 5722 5719 5715 5714 5712 5712 5711 5711 5711 5711 5713 5715 5718 5720
5770 5775 5777 5782 5785 5787 5782 5783 5782 5785 5795 5793 5790 5786 5785 5782 5781 5780 5777 5773 5770 5767 5764 5761 5758 5755 5751 5747 5742 5739 5735 5732 5728 5724 5721 5719 5715 5712 5709 5707 5706 5706 5705 5705 5706 5708 5710 5712 5715
5774 5767 5770 5776 5778 5784 5781 5769 5774 5787 5791 5787 5786 5786 5784 5782 5782 5779 5777 5774 5771 5768 5765 5760 5757 5753 5749 5744 5739 5736 5733 5730 5725 5722 5718 5715 5712 5709 5705 5702 5701 5701 5701 5701 5701 5702 5704 5706 5709
5762 5756 5748 5765 5774 5779 5768 5751 5772 5789 5786 5781 5783 5783 5780 5780 5781 5781 5779 5775 5773 5768 5763 5759 5756 5751 5746 5741 5736 5733 5730 5726 5723 5719 5715 5711 5708 5705 5701 5697 5696 5696 5696 5695 5694 5695 5696 5698 5701
5744 5738 5739 5751 5770 5772 5765 5757 5774 5788 5785 5779 5782 5782 5779 5778 5779 5779 5778 5775 5772 5767 5762 5757 5753 5748 5743 5739 5735 5731 5728 5723 5720 5716 5712 5708 5704 5700 5697 5693 5692 5691 5690 5689 5689 5689 5690 5691 5693
5726 5731 5736 5742 5759 5763 5758 5759 5771 5782 5781 5780 5782 5783 5780 5777 5776 5779 5776 5773 5770 5767 5762 5756 5751 5746 5741 5737 5732 5727 5724 5720 5717 5713 5709 5704 5700 5697 5694 5690 5688 5686 5684 5682 5682 5683 5684 5686 5688
5737 5734 5736 5745 5762 5758 5756 5762 5770 5780 5779 5778 5780 5783 5781 5779 5780 5779 5775 5771 5768 5763 5759 5753 5748 5744 5738 5732 5727 5722 5718 5715 5713 5710 5706 5702 5698 5694 5690 5686 5683 5681 5678 5677 5678 5678 5678 5679 5683
5735 5732 5737 5747 5762 5759 5756 5761 5774 5779 5779 5781 5781 5782 5781 5778 5777 5773 5770 5768 5764 5759 5755 5752 5747 5742 5737 5731 5727 5722 5718 5714 5711 5708 5704 5700 5695 5691 5687 5683 5679 5677 5674 5673 5673 5673 5672 5674 5677
5735 5735 5739 5741 5751 5758 5755 5754 5765 5776 5781 5782 5784 5784 5783 5778 5774 5770 5767 5764 5761 5757 5753 5750 5745 5741 5735 5731 5726 5721 5717 5712 5708 5704 5700 5698 5694 5689 5685 5681 5677 5674 5672 5670 5669 5670 5668 5667 5671
5728 5748 5749 5746 5738 5734 5748 5733 5755 5767 5768 5773 5777 5779 5779 5778 5775 5769 5765 5761 5758 5756 5753 5749 5745 5740 5735 5731 5724 5718 5711 5706 5704 5701 5699 5696 5693 5688 5684 5679 5676 5672 5670 5668 5667 5668 5667 5665 5665
5740 5753 5750 5748 5742 5739 5749 5741 5749 5764 5757 5766 5775 5778 5778 5776 5774 5768 5764 5761 5759 5756 5752 5748 5743 5739 5735 5730 5724 5718 5712 5708 5705 5702 5697 5694 5691 5688 5684 5679 5675 5672 5669 5667 5665 5665 5664 5664 5663
5753 5750 5748 5749 5741 5723 5744 5741 5740 5758 5763 5767 5775 5777 5776 5774 5772 5768 5765 5760 5757 5754 5750 5746 5741 5736 5733 5729 5725 5719 5713 5708 5703 5699 5695 5692 5689 5686 5683 5679 5675 5672 5668 5665 5663 5662 5662 5662 5662
5746 5729 5712 5710 5713 5721 5751 5746 5744 5765 5777 5776 5775 5775 5775 5773 5769 5764 5760 5755 5752 5749 5746 5743 5739 5734 5732 5728 5724 5720 5715 5710 5704 5699 5695 5691 5687 5684 5681 5678 5674 5671 5668 5665 5663 5661 5660 5660 5660
5740 5732 5703 5688 5696 5717 5742 5741 5754 5775 5781 5782 5780 5776 5773 5769 5766 5762 5759 5754 5751 5748 5745 5742 5738 5733 5730 5727 5723 5720 5716 5710 5705 5701 5697 5692 5688 5684 5681 5678 5674 5670 5668 5665 5662 5660 5659 5660 5660
5737 5732 5736 5718 5714 5711 5732 5752 5761 5774 5773 5774 5773 5770 5767 5766 5764 5761 5758 5755 5751 5748 5745 5742 5738 5733 5730 5727 5723 5719 5715 5711 5706 5702 5698 5693 5689 5686 5682 5678 5674 5670 5667 5664 5661 5659 5658 5658 5658
5752 5746 5735 5724 5708 5705 5725 5739 5743 5755 5760 5766 5767 5765 5766 5767 5764 5762 5759 5755 5752 5749 5746 5743 5739 5734 5731 5728 5723 5720 5715 5711 5707 5702 5697 5693 5690 5686 5681 5677 5674 5670 5667 5664 5662 5659 5658 5657 5657
5743 5741 5739 5736 5732 5710 5705 5724 5763 5763 5767 5767 5769 5769 5767 5766 5764 5761 5759 5756 5753 5750 5746 5742 5739 5735 5731 5727 5724 5719 5715 5711 5707 5702 5698 5694 5690 5686 5682 5678 5675 5671 5668 5665 5662 5659 5658 5656 5656
5753 5747 5741 5723 5723 5729 5719 5729 5774 5774 5774 5772 5771 5771 5771 5768 5766 5763 5759 5755 5752 5749 5746 5742 5739 5735 5731 5727 5723 5719 5714 5710 5705 5701 5698 5695 5690 5687 5684 5680 5676 5672 5669 5665 5662 5660 5658 5656 5655